Weather History for Fort Worth NAS, TX

Change the Weather History Date:

Thursday, October 3, 2013

  Actual Average Record
Temperature  
Mean Temperature 85 °F -  
Max Temperature 93 °F 79 °F 95 °F (2000)
Min Temperature 77 °F 60 °F 55 °F (2001)
Cooling Degree Days 20    
Growing Degree Days 35 (Base 50)    
Moisture  
Dew Point 67 °F    
Average Humidity 60    
Maximum Humidity 78    
Minimum Humidity 38    
Precipitation  
Precipitation 0.00 in - - ()
Sea Level Pressure  
Sea Level Pressure 29.87 in    
Wind  
Wind Speed 14 mph (SSE)    
Max Wind Speed 18 mph    
Max Gust Speed 25 mph    
Visibility 10 miles    
Events      
Averages and records for this station are not official NWS values.
T = Trace of Precipitation, MM = Missing Value Source: NWS Daily Summary

Daily Weather History Graph

Daily Weather History Graph

Search for Another Location

Airport:

Trip Planner

Search our weather history database for the weather conditions in past years. The results will help you decide how hot, cold, wet, or windy it might be!

Date:

Astronomy

Oct. 03, 2013 Rise Set
Actual Time 7:25 AM CDT 7:11 PM CDT
Civil Twilight 7:00 AM CDT 7:35 PM CDT
Nautical Twilight 6:32 AM CDT 8:04 PM CDT
Astronomical Twilight 6:03 AM CDT 8:33 PM CDT
Moon 6:03 AM CDT (10/3) 6:19 PM CDT (10/3)
Length of Visible Light 12h 35m
Length of Day
11h 45m
Waning Crescent, 2% of the Moon is Illuminated
Oct 3
Waning Crescent
Oct 4
New
Oct 11
First Quarter
Oct 18
Full
Oct 26
Last Quarter

Hourly Weather History & Observations

Time (CDT) Temp. Heat Index Dew Point Humidity Pressure Visibility Wind Dir Wind Speed Gust Speed Precip Events Conditions
12:52 AM 78.1 °F - 68.0 °F 71% 29.90 in 10.0 mi SSE 13.8 mph - N/A   Clear
1:52 AM 77.0 °F - 68.0 °F 74% 29.89 in 10.0 mi SSE 11.5 mph - N/A   Clear
2:28 AM 78.8 °F - 68.0 °F 69% 29.93 in 10.0 mi South 13.8 mph - N/A   Mostly Cloudy
2:52 AM 78.1 °F - 69.1 °F 74% 29.88 in 10.0 mi South 16.1 mph - N/A   Overcast
3:52 AM 78.1 °F - 69.1 °F 74% 29.88 in 10.0 mi South 12.7 mph - N/A   Overcast
4:52 AM 78.1 °F - 69.1 °F 74% 29.88 in 10.0 mi South 15.0 mph 19.6 mph N/A   Mostly Cloudy
5:04 AM 78.8 °F - 69.8 °F 74% 29.93 in 10.0 mi South 13.8 mph - N/A   Overcast
5:52 AM 78.1 °F - 69.1 °F 74% 29.88 in 10.0 mi South 10.4 mph - N/A   Overcast
6:35 AM 77.0 °F - 69.8 °F 78% 29.93 in 10.0 mi SSE 10.4 mph - N/A   Scattered Clouds
6:52 AM 78.1 °F - 69.1 °F 74% 29.88 in 10.0 mi SSE 10.4 mph - N/A   Partly Cloudy
7:52 AM 77.0 °F - 69.1 °F 76% 29.90 in 10.0 mi South 10.4 mph - N/A   Partly Cloudy
8:52 AM 79.0 °F - 69.1 °F 72% 29.91 in 10.0 mi South 15.0 mph 20.7 mph N/A   Scattered Clouds
9:52 AM 82.0 °F 85.5 °F 69.1 °F 65% 29.92 in 10.0 mi South 15.0 mph - N/A   Partly Cloudy
10:52 AM 84.9 °F 88.8 °F 69.1 °F 59% 29.91 in 10.0 mi South 16.1 mph 25.3 mph N/A   Partly Cloudy
11:52 AM 86.0 °F 89.4 °F 68.0 °F 55% 29.91 in 10.0 mi South 18.4 mph - N/A   Scattered Clouds
12:52 PM 88.0 °F 91.4 °F 68.0 °F 51% 29.89 in 10.0 mi SSE 17.3 mph - N/A   Scattered Clouds
1:52 PM 91.0 °F 93.8 °F 66.0 °F 44% 29.86 in 10.0 mi South 18.4 mph 23.0 mph N/A   Partly Cloudy
2:52 PM 91.9 °F 94.5 °F 66.0 °F 42% 29.83 in 10.0 mi South 17.3 mph 23.0 mph N/A   Partly Cloudy
3:52 PM 93.0 °F 95.0 °F 64.9 °F 39% 29.82 in 10.0 mi South 18.4 mph 24.2 mph N/A   Scattered Clouds
4:52 PM 91.9 °F 92.9 °F 63.0 °F 38% 29.81 in 10.0 mi South 13.8 mph 23.0 mph N/A   Partly Cloudy
5:52 PM 91.0 °F 91.9 °F 63.0 °F 39% 29.79 in 10.0 mi SSE 18.4 mph 24.2 mph N/A   Partly Cloudy
6:52 PM 90.0 °F 90.6 °F 63.0 °F 40% 29.80 in 10.0 mi SSE 13.8 mph 25.3 mph N/A   Partly Cloudy
7:52 PM 88.0 °F 88.4 °F 62.1 °F 42% 29.80 in 10.0 mi SSE 10.4 mph - N/A   Partly Cloudy
8:52 PM 86.0 °F 87.6 °F 64.9 °F 49% 29.82 in 10.0 mi SE 13.8 mph 25.3 mph N/A   Clear
9:52 PM 84.0 °F 86.5 °F 66.9 °F 56% 29.83 in 10.0 mi SSE 13.8 mph - N/A   Clear
10:52 PM 82.9 °F 85.0 °F 66.0 °F 56% 29.85 in 10.0 mi SSE 12.7 mph - N/A   Clear
11:52 PM 82.0 °F 84.1 °F 66.0 °F 58% 29.85 in 10.0 mi SE 9.2 mph - N/A   Clear